AirNav   TITAN Aviation Fuels
 
 1061 users online  

57AZ La Cholla Airpark
Tucson, Arizona, USA

GOING TO TUCSON?


FAA INFORMATION EFFECTIVE 16 JUNE 2022

Location

FAA Identifier: 57AZ
Lat/Long: 32-26-53.0218N 111-00-06.3713W
32-26.883697N 111-00.106188W
32.4480616,-111.0017698
(estimated)
Elevation: 2953 ft. / 900 m (estimated)
Variation: 12E (1985)
From city: 8 miles NW of TUCSON, AZ
Time zone: UTC -7 (year round; does not observe DST)
Zip code: 85737

Airport Operations

Airport use: Private use. Permission required prior to landing
Activation date: 04/1943
Control tower: no
ARTCC: ALBUQUERQUE CENTER
FSS: PRESCOTT FLIGHT SERVICE STATION
Attendance: ON CALL
PPR CALL (520) 297-8096.
Wind indicator: lighted
Segmented circle: no

Airport Communications

UNICOM: 122.975
WX AWOS-3 at AVQ (11 nm W): 118.375 (520-682-4104)
WX AWOS-3PT at MZJ (17 nm W): 130.375 (520-682-3519)

Airport Services

Fuel available: 100LL
Airframe service: NONE
Powerplant service: NONE

Runway Information

Runway 1/19

Dimensions: 4670 x 44 ft. / 1423 x 13 m
Surface: asphalt, in good condition
RUNWAY 1  RUNWAY 19
Latitude: 32-26.521815N32-27.245578N
Longitude: 111-00.261523W110-59.950853W
Elevation: 2887.4 ft.2953.0 ft.
Traffic pattern: leftleft
Runway heading: 008 magnetic, 020 true188 magnetic, 200 true
Displaced threshold: 250 ft.327 ft.
Obstructions: plinenone

Helipad H1

Dimensions: 44 x 44 ft. / 13 x 13 m
Surface: asphalt, in good condition
Traffic pattern: leftleft

Airport Ownership and Management from official FAA records

Ownership: Privately-owned
Owner: LA CHOLLA AIRPARK INC
1777 W. CESSNA WAY, BLDG 1
ORO VALLEY, AZ 85755-9553
Phone 520-297-8096
Manager: KEN REED
1777 W. CESSNA WAY, BLDG 1
ORO VALLEY, AZ 85755-9553
Phone 520-297-8096
FAX: SAME AS PHONE - (520) 297-8096

Airport Operational Statistics

Aircraft based on the field: 98
Single engine airplanes: 90
Multi engine airplanes: 4
Jet airplanes: 2
Helicopters: 2
    
Aircraft operations: avg 77/week *
100% local general aviation
* for 12-month period ending 31 December 1999

Additional Remarks

ROTORCRAFT USE STD LEFT-HAND TRF PATTERN TO THE ARPT. TAXI TO RWY CNTRLN AND MANEUVER WEST TO PARK, 125 FT WEST OF RWY CNTRLN. FOLLOW SIGNS TO PARKING.
MONITOR 122.975 INVOF ARPT.
FOR CD CTC TUCSON APCH AT 520-829-6121.

Instrument Procedures

There are no published instrument procedures at 57AZ.

Some nearby airports with instrument procedures:

KAVQ - Marana Regional Airport (11 nm W)
KDMA - Davis Monthan Air Force Base (18 nm S)
KTUS - Tucson International Airport (20 nm S)
KRYN - Ryan Field Airport (20 nm SW)
P08 - Coolidge Municipal Airport (36 nm NW)
 
Loc | Ops | Rwys | IFR | FBO | Links
Com | Nav | Svcs | Stats | Notes
Area around 57AZ (La Cholla Airpark)
 
Road maps at: MapQuest Bing Google
 
Aerial photo
WARNING: Photo may not be current or correct
Aerial photo of 57AZ (La Cholla Airpark)
Do you have a better or more recent aerial photo of La Cholla Airpark that you would like to share? If so, please send us your photo.

 
Sectional chart

 
Airport distance calculator
Flying to La Cholla Airpark? Find the distance to fly.

From to 57AZ

Sunrise and sunset
Times for 26-Jun-2022
 Local
(UTC-7)
 Zulu
(UTC)
Morning civil twilight04:5111:51
Sunrise05:2012:20
Sunset19:3402:34
Evening civil twilight20:0303:03

Current date and time
Zulu (UTC)  27-Jun-2022 00:51:53
Local (UTC-7)  26-Jun-2022 17:51:53
 
METAR
KAVQ 
11nm W 
270035Z AUTO 16005KT 10SM SCT110 36/07 A2997 RMK AO2 T03620072
KMZJ 
17nm W 
270035Z AUTO 14005KT 10SM CLR 37/11 A2998 RMK AO2 LTG DSNT NE AND NW
KDMA 
18nm S 
262358Z AUTO 17004KT 10SM SCT170 34/11 A3001 RMK AO2 SLP115 T03430108 10348 20289 57021 $
KTUS 
19nm S 
262353Z 19004KT 10SM CLR 34/12 A3005 RMK AO2 SLP120 T03440122 10350 20294 56020
KRYN 
20nm SW 
261845Z 09014KT 10SM CLR 33/15 A3010
TAF
KDMA 
18nm S 
262200Z 2622/2804 10010KT 9999 SCT070 BKN100 QNH3004INS TEMPO 2623/2704 VRB15G25KT 9000 -SHRA VCTS BKN090CB BECMG 2703/2704 VRB06KT 9999 BKN080 QNH3010INS BECMG 2715/2716 33009KT 9999 FEW080 SCT110 QNH3000INS TEMPO 2723/2803 01012KT 9000 -SHRA BKN070 TX37/2721Z TN26/2713Z
KTUS 
19nm S 
261720Z 2618/2718 12011G21KT P6SM BKN120 FM262100 06008KT P6SM BKN100 FM270200 17011G23KT P6SM VCSH BKN090 FM270900 12011KT P6SM BKN120
NOTAMs
Click for the latest NOTAMs
NOTAMs are issued by the DoD/FAA and will open in a separate window not controlled by AirNav.

 

 
 

Would you like to see your business listed on this page?

 If your business provides an interesting product or service to pilots, flight crews, aircraft, or users of the La Cholla Airpark, you should consider listing it here.  To start the listing process, click on the button below
 
Add a business
 

Other Pages about La Cholla Airpark

Official airport web site
 
Update a link
 
Copyright © AirNav, LLC. All rights reserved. Privacy Policy  Contact